TimeMDT,TemperatureF,Dew PointF,Humidity,Sea Level PressureIn,VisibilityMPH,Wind Direction,Wind SpeedMPH,Gust SpeedMPH,PrecipitationIn,Events,Conditions,WindDirDegrees,DateUTC
12:15 AM,48.9,35.6,60,29.97,10.0,SE,3.5,-,N/A,,Mostly Cloudy,130,2013-09-27 06:15:00
12:35 AM,49.6,37.4,63,29.97,10.0,SSE,4.6,-,N/A,,Overcast,150,2013-09-27 06:35:00
12:55 AM,51.8,36.0,55,29.96,10.0,SE,5.8,-,N/A,,Overcast,130,2013-09-27 06:55:00
1:15 AM,51.8,35.8,54,29.96,10.0,Calm,Calm,-,N/A,,Mostly Cloudy,0,2013-09-27 07:15:00
1:35 AM,47.5,37.8,69,29.96,10.0,Calm,Calm,-,N/A,,Mostly Cloudy,0,2013-09-27 07:35:00
1:55 AM,48.4,36.7,64,29.96,10.0,SE,8.1,-,N/A,,Mostly Cloudy,130,2013-09-27 07:55:00
2:15 AM,50.0,35.8,58,29.96,10.0,ESE,10.4,-,N/A,,Scattered Clouds,120,2013-09-27 08:15:00
2:35 AM,49.8,35.8,59,29.95,10.0,ESE,9.2,-,N/A,,Clear,120,2013-09-27 08:35:00
2:55 AM,49.8,36.0,59,29.95,10.0,SE,10.4,-,N/A,,Clear,130,2013-09-27 08:55:00
3:15 AM,50.4,35.8,57,29.94,10.0,ESE,12.7,-,N/A,,Clear,110,2013-09-27 09:15:00
3:35 AM,48.6,35.8,61,29.94,10.0,SE,11.5,-,N/A,,Clear,130,2013-09-27 09:35:00
3:55 AM,47.5,36.3,65,29.94,10.0,SW,6.9,-,N/A,,Clear,230,2013-09-27 09:55:00
4:15 AM,49.1,36.3,61,29.94,10.0,SE,6.9,-,N/A,,Scattered Clouds,130,2013-09-27 10:15:00
4:35 AM,48.7,37.2,64,29.94,10.0,SSE,3.5,-,N/A,,Mostly Cloudy,150,2013-09-27 10:35:00
4:55 AM,49.6,38.3,65,29.94,10.0,Calm,Calm,-,N/A,,Overcast,0,2013-09-27 10:55:00
5:15 AM,50.0,39.0,66,29.94,10.0,SSE,3.5,-,N/A,,Overcast,150,2013-09-27 11:15:00
5:35 AM,50.9,39.0,64,29.93,10.0,SSE,3.5,-,N/A,,Overcast,160,2013-09-27 11:35:00
5:55 AM,51.8,39.0,62,29.96,10.0,Calm,Calm,-,N/A,Rain,Light Rain,0,2013-09-27 11:55:00
6:15 AM,53.1,44.1,71,29.96,10.0,SW,4.6,-,N/A,Rain,Light Rain,220,2013-09-27 12:15:00
6:35 AM,52.7,45.0,75,29.96,10.0,WSW,4.6,-,N/A,,Overcast,250,2013-09-27 12:35:00
6:55 AM,50.9,44.4,78,29.94,10.0,Calm,Calm,-,N/A,,Overcast,0,2013-09-27 12:55:00
7:15 AM,51.1,45.0,80,29.96,10.0,Calm,Calm,-,N/A,,Overcast,0,2013-09-27 13:15:00
7:35 AM,50.7,44.6,80,29.97,10.0,WSW,3.5,-,N/A,,Overcast,250,2013-09-27 13:35:00
7:55 AM,51.1,44.4,78,29.98,10.0,WSW,3.5,-,N/A,,Overcast,240,2013-09-27 13:55:00
8:15 AM,52.7,45.0,75,29.98,10.0,West,4.6,-,N/A,,Overcast,280,2013-09-27 14:15:00
8:35 AM,53.6,44.6,72,29.99,10.0,West,4.6,-,N/A,,Overcast,270,2013-09-27 14:35:00
8:55 AM,54.0,44.8,71,29.99,10.0,Calm,Calm,-,N/A,,Overcast,0,2013-09-27 14:55:00
9:15 AM,53.4,44.6,72,29.99,10.0,North,4.6,-,N/A,,Overcast,350,2013-09-27 15:15:00
9:35 AM,52.9,44.1,72,30.01,10.0,West,8.1,-,N/A,Rain,Light Rain,270,2013-09-27 15:35:00
9:55 AM,51.8,45.3,79,30.02,10.0,SSW,6.9,-,N/A,Rain,Rain,200,2013-09-27 15:55:00
10:15 AM,52.2,45.5,78,30.02,10.0,ESE,3.5,-,N/A,,Drizzle,120,2013-09-27 16:15:00
10:35 AM,52.5,43.9,72,30.03,10.0,Calm,Calm,-,N/A,,Overcast,0,2013-09-27 16:35:00
10:55 AM,52.2,44.8,76,30.03,10.0,SW,3.5,-,N/A,Rain,Light Rain,230,2013-09-27 16:55:00
11:15 AM,51.8,43.7,74,30.03,10.0,North,3.5,-,N/A,Rain,Rain,350,2013-09-27 17:15:00
11:35 AM,52.7,43.7,71,30.04,10.0,WNW,4.6,-,N/A,,Overcast,290,2013-09-27 17:35:00
11:55 AM,51.1,43.2,74,30.04,10.0,NNW,11.5,-,N/A,Rain,Light Rain,340,2013-09-27 17:55:00
12:15 PM,50.0,40.8,71,30.04,10.0,NNW,12.7,18.4,N/A,,Overcast,340,2013-09-27 18:15:00
12:35 PM,48.4,41.7,78,30.06,10.0,North,12.7,-,N/A,Rain,Light Rain,350,2013-09-27 18:35:00
12:55 PM,49.1,41.2,74,30.06,10.0,North,11.5,-,N/A,Rain,Light Rain,350,2013-09-27 18:55:00
1:15 PM,50.0,38.5,65,30.06,10.0,WNW,15.0,21.9,N/A,,Overcast,300,2013-09-27 19:15:00
1:35 PM,48.4,40.6,75,30.07,10.0,North,8.1,-,N/A,,Drizzle,360,2013-09-27 19:35:00
1:55 PM,48.4,41.2,76,30.06,10.0,North,13.8,17.3,N/A,,Overcast,360,2013-09-27 19:55:00
2:15 PM,49.6,39.9,69,30.07,10.0,NNE,9.2,21.9,N/A,,Overcast,20,2013-09-27 20:15:00
2:35 PM,50.9,38.3,62,30.07,10.0,WNW,12.7,21.9,N/A,,Overcast,300,2013-09-27 20:35:00
2:55 PM,50.5,37.8,62,30.07,10.0,NW,15.0,20.7,N/A,,Overcast,320,2013-09-27 20:55:00
3:15 PM,50.5,37.2,60,30.07,10.0,NW,12.7,-,N/A,,Overcast,310,2013-09-27 21:15:00
3:35 PM,51.4,36.5,57,30.08,10.0,NW,15.0,18.4,N/A,,Overcast,320,2013-09-27 21:35:00
3:55 PM,53.6,35.2,50,30.08,10.0,NW,17.3,27.6,N/A,,Overcast,310,2013-09-27 21:55:00
4:15 PM,55.9,34.9,45,30.08,10.0,WNW,11.5,27.6,N/A,,Mostly Cloudy,300,2013-09-27 22:15:00
4:35 PM,56.1,34.0,43,30.08,10.0,WNW,17.3,23.0,N/A,,Scattered Clouds,300,2013-09-27 22:35:00
4:55 PM,55.2,32.4,42,30.09,10.0,WNW,13.8,27.6,N/A,,Mostly Cloudy,290,2013-09-27 22:55:00
5:15 PM,55.8,32.2,41,30.09,10.0,WNW,12.7,-,N/A,,Mostly Cloudy,300,2013-09-27 23:15:00
5:35 PM,54.9,30.9,40,30.09,10.0,WNW,10.4,-,N/A,,Scattered Clouds,300,2013-09-27 23:35:00
5:55 PM,54.7,27.3,35,30.10,10.0,NW,16.1,21.9,N/A,,Scattered Clouds,320,2013-09-27 23:55:00
6:15 PM,54.0,27.0,35,30.10,10.0,NW,11.5,-,N/A,,Clear,320,2013-09-28 00:15:00
6:35 PM,52.9,24.8,34,30.11,10.0,WNW,11.5,17.3,N/A,,Clear,300,2013-09-28 00:35:00
6:55 PM,48.9,28.0,44,30.11,10.0,WNW,6.9,-,N/A,,Clear,300,2013-09-28 00:55:00
7:15 PM,45.0,29.8,55,30.12,10.0,West,5.8,-,N/A,,Clear,270,2013-09-28 01:15:00
7:35 PM,44.8,26.1,48,30.12,10.0,West,5.8,-,N/A,,Clear,260,2013-09-28 01:35:00
7:55 PM,41.2,28.6,61,30.13,10.0,West,5.8,-,N/A,,Clear,270,2013-09-28 01:55:00
8:15 PM,42.6,26.6,53,30.14,10.0,West,5.8,-,N/A,,Clear,280,2013-09-28 02:15:00
8:35 PM,41.7,24.8,51,30.15,10.0,Calm,Calm,-,N/A,,Clear,0,2013-09-28 02:35:00
8:55 PM,39.6,25.0,56,30.16,10.0,NNW,4.6,-,N/A,,Clear,340,2013-09-28 02:55:00
9:15 PM,38.1,26.1,62,30.17,10.0,North,5.8,-,N/A,,Clear,360,2013-09-28 03:15:00
9:35 PM,40.8,23.2,50,30.18,10.0,Calm,Calm,-,N/A,,Clear,0,2013-09-28 03:35:00
9:55 PM,37.2,25.0,61,30.18,10.0,Calm,Calm,-,N/A,,Clear,0,2013-09-28 03:55:00
10:15 PM,38.3,22.8,54,30.20,10.0,NNW,6.9,-,N/A,,Clear,340,2013-09-28 04:15:00
10:35 PM,36.3,23.4,59,30.20,10.0,North,5.8,-,N/A,,Clear,360,2013-09-28 04:35:00
10:55 PM,35.2,25.0,66,30.20,10.0,North,3.5,-,N/A,,Clear,360,2013-09-28 04:55:00
11:15 PM,37.9,22.1,53,30.20,10.0,North,4.6,-,N/A,,Clear,360,2013-09-28 05:15:00
11:35 PM,36.9,22.1,55,30.20,10.0,NNW,4.6,-,N/A,,Clear,340,2013-09-28 05:35:00
11:55 PM,40.1,20.1,45,30.21,10.0,NNW,6.9,-,N/A,,Clear,340,2013-09-28 05:55:00